Time,TemperatureF,DewpointF,PressureIn,WindDirection,WindDirectionDegrees,WindSpeedMPH,WindSpeedGustMPH,Humidity,HourlyPrecipIn,Conditions,Clouds,dailyrainin,SolarRadiationWatts/m^2,SoftwareType,DateUTC
2013-02-01 00:00:00,60.3,43.1,30.18,NNW,340,4.0,4.0,53,0.00,,OVC,0.00,0.00,VWS V14.01,2013-02-01 05:00:00,
2013-02-01 00:01:00,60.3,43.1,30.18,NNW,329,4.0,4.0,53,0.00,,OVC,0.00,0.00,VWS V14.01,2013-02-01 05:01:00,
2013-02-01 00:02:00,60.3,43.1,30.18,NNW,327,2.0,5.0,53,0.00,,OVC,0.00,0.00,VWS V14.01,2013-02-01 05:02:00,
2013-02-01 00:03:00,60.3,43.1,30.18,NNW,340,2.0,5.0,53,0.00,,OVC,0.00,0.00,VWS V14.01,2013-02-01 05:03:00,
2013-02-01 00:05:00,60.3,43.1,30.18,NNW,336,1.0,6.0,53,0.00,,OVC050,0.00,0.00,VWS V14.01,2013-02-01 05:05:00,
2013-02-01 00:08:00,60.2,43.0,30.18,NNW,331,1.0,4.0,53,0.00,,OVC,0.00,0.00,VWS V14.01,2013-02-01 05:08:00,
2013-02-01 00:10:00,60.1,42.9,30.18,NNW,333,4.0,5.0,53,0.00,,OVC050,0.00,0.00,VWS V14.01,2013-02-01 05:10:00,
2013-02-01 00:13:00,60.1,42.9,30.18,North,351,3.0,4.0,53,0.00,,OVC,0.00,0.00,VWS V14.01,2013-02-01 05:13:00,
2013-02-01 00:15:00,60.0,43.3,30.18,NNW,342,2.0,4.0,54,0.00,,OVC050,0.00,0.00,VWS V14.01,2013-02-01 05:15:00,
2013-02-01 00:18:00,60.0,43.3,30.18,NNW,333,2.0,4.0,54,0.00,,OVC,0.00,0.00,VWS V14.01,2013-02-01 05:18:00,
2013-02-01 00:20:00,59.9,43.2,30.18,North,351,1.0,3.0,54,0.00,,OVC050,0.00,0.00,VWS V14.01,2013-02-01 05:20:00,
2013-02-01 00:23:00,59.8,43.1,30.18,NNW,338,6.0,6.0,54,0.00,,OVC,0.00,0.00,VWS V14.01,2013-02-01 05:23:00,
2013-02-01 00:25:00,59.8,42.7,30.18,NNW,340,1.0,6.0,53,0.00,,OVC050,0.00,0.00,VWS V14.01,2013-02-01 05:25:00,
2013-02-01 00:28:00,59.7,43.0,30.18,NW,319,3.0,6.0,54,0.00,,OVC,0.00,0.00,VWS V14.01,2013-02-01 05:28:00,
2013-02-01 00:30:00,59.7,43.0,30.18,NNW,341,4.0,5.0,54,0.00,,OVC050,0.00,0.00,VWS V14.01,2013-02-01 05:30:00,
2013-02-01 00:33:00,59.7,43.0,30.18,NNW,343,1.0,4.0,54,0.00,,OVC,0.00,0.00,VWS V14.01,2013-02-01 05:33:00,
2013-02-01 00:35:00,59.6,43.0,30.18,North,351,3.0,6.0,54,0.00,,OVC050,0.00,0.00,VWS V14.01,2013-02-01 05:35:00,
2013-02-01 00:38:00,59.6,43.0,30.18,NNW,342,5.0,5.0,54,0.00,,OVC,0.00,0.00,VWS V14.01,2013-02-01 05:38:00,
2013-02-01 00:40:00,59.6,43.0,30.18,NNW,333,2.0,8.0,54,0.00,,OVC050,0.00,0.00,VWS V14.01,2013-02-01 05:40:00,
2013-02-01 00:43:00,59.5,42.9,30.18,North,350,3.0,5.0,54,0.00,,OVC,0.00,0.00,VWS V14.01,2013-02-01 05:43:00,
2013-02-01 00:45:00,59.5,42.9,30.18,NNW,346,7.0,7.0,54,0.00,,OVC050,0.00,0.00,VWS V14.01,2013-02-01 05:45:00,
2013-02-01 00:48:00,59.5,42.9,30.18,North,349,4.0,6.0,54,0.00,,OVC,0.00,0.00,VWS V14.01,2013-02-01 05:48:00,
2013-02-01 00:50:00,59.5,42.9,30.18,North,355,2.0,4.0,54,0.00,,OVC050,0.00,0.00,VWS V14.01,2013-02-01 05:50:00,
2013-02-01 00:53:00,59.5,42.9,30.19,NNW,347,1.0,6.0,54,0.00,,OVC,0.00,0.00,VWS V14.01,2013-02-01 05:53:00,
2013-02-01 00:55:00,59.4,42.8,30.19,North,350,3.0,4.0,54,0.00,,OVC050,0.00,0.00,VWS V14.01,2013-02-01 05:55:00,
2013-02-01 00:58:00,59.4,42.8,30.19,NNW,338,5.0,6.0,54,0.00,,OVC,0.00,0.00,VWS V14.01,2013-02-01 05:58:00,
2013-02-01 01:00:00,59.4,43.2,30.19,NNW,347,4.0,4.0,55,0.00,,OVC050,0.00,0.00,VWS V14.01,2013-02-01 06:00:00,
2013-02-01 01:03:00,59.3,43.2,30.18,NNW,337,2.0,4.0,55,0.00,,OVC,0.00,0.00,VWS V14.01,2013-02-01 06:03:00,
2013-02-01 01:05:00,59.3,43.6,30.18,NNW,332,1.0,5.0,56,0.00,,OVC050,0.00,0.00,VWS V14.01,2013-02-01 06:05:00,
2013-02-01 01:08:00,59.2,43.5,30.18,NNW,344,5.0,5.0,56,0.00,,OVC,0.00,0.00,VWS V14.01,2013-02-01 06:08:00,
2013-02-01 01:10:00,59.3,43.6,30.18,North,351,0.0,4.0,56,0.00,,OVC050,0.00,0.00,VWS V14.01,2013-02-01 06:10:00,
2013-02-01 01:13:00,59.3,43.6,30.18,North,355,2.0,3.0,56,0.00,,OVC,0.00,0.00,VWS V14.01,2013-02-01 06:13:00,
2013-02-01 01:15:00,59.2,43.5,30.18,NNW,337,2.0,3.0,56,0.00,,OVC050,0.00,0.00,VWS V14.01,2013-02-01 06:15:00,
2013-02-01 01:18:00,59.2,44.0,30.18,NW,323,1.0,3.0,57,0.00,,OVC,0.00,0.00,VWS V14.01,2013-02-01 06:18:00,
2013-02-01 01:20:00,59.1,44.3,30.18,NNW,341,1.0,3.0,58,0.00,,OVC050,0.00,0.00,VWS V14.01,2013-02-01 06:20:00,
2013-02-01 01:23:00,59.0,44.3,30.19,NNW,337,3.0,10.0,58,0.00,,OVC,0.00,0.00,VWS V14.01,2013-02-01 06:23:00,
2013-02-01 01:25:00,59.0,44.3,30.19,NNW,348,3.0,4.0,58,0.00,,OVC050,0.00,0.00,VWS V14.01,2013-02-01 06:25:00,
2013-02-01 01:28:00,58.9,44.2,30.18,NNW,339,3.0,6.0,58,0.00,,OVC,0.00,0.00,VWS V14.01,2013-02-01 06:28:00,
2013-02-01 01:30:00,58.9,43.7,30.18,NNW,342,3.0,6.0,57,0.00,,OVC050,0.00,0.00,VWS V14.01,2013-02-01 06:30:00,
2013-02-01 01:33:00,58.9,44.2,30.18,NW,320,2.0,6.0,58,0.00,,OVC,0.00,0.00,VWS V14.01,2013-02-01 06:33:00,
2013-02-01 01:35:00,58.8,44.1,30.18,NW,321,2.0,5.0,58,0.00,,OVC050,0.00,0.00,VWS V14.01,2013-02-01 06:35:00,
2013-02-01 01:38:00,58.7,44.0,30.18,NNW,338,5.0,7.0,58,0.00,,OVC,0.00,0.00,VWS V14.01,2013-02-01 06:38:00,
2013-02-01 01:40:00,58.7,44.0,30.18,NNW,344,2.0,6.0,58,0.00,,OVC050,0.00,0.00,VWS V14.01,2013-02-01 06:40:00,
2013-02-01 01:43:00,58.7,44.0,30.19,NNW,340,2.0,5.0,58,0.00,,OVC,0.00,0.00,VWS V14.01,2013-02-01 06:43:00,
2013-02-01 01:45:00,58.6,43.9,30.19,NNW,346,2.0,5.0,58,0.00,,OVC050,0.00,0.00,VWS V14.01,2013-02-01 06:45:00,
2013-02-01 01:48:00,58.6,43.9,30.18,NNW,344,5.0,8.0,58,0.00,,OVC,0.00,0.00,VWS V14.01,2013-02-01 06:48:00,
2013-02-01 01:50:00,58.5,43.8,30.18,North,349,2.0,5.0,58,0.00,,OVC050,0.00,0.00,VWS V14.01,2013-02-01 06:50:00,
2013-02-01 01:53:00,58.5,43.8,30.18,NNW,342,4.0,7.0,58,0.00,,OVC,0.00,0.00,VWS V14.01,2013-02-01 06:53:00,
2013-02-01 01:55:00,58.5,43.8,30.18,North,360,2.0,8.0,58,0.00,,OVC050,0.00,0.00,VWS V14.01,2013-02-01 06:55:00,
2013-02-01 01:58:00,58.4,43.7,30.18,NNW,344,2.0,6.0,58,0.00,,OVC,0.00,0.00,VWS V14.01,2013-02-01 06:58:00,
2013-02-01 02:00:00,58.4,43.7,30.18,NNW,344,3.0,4.0,58,0.00,,OVC050,0.00,0.00,VWS V14.01,2013-02-01 07:00:00,
2013-02-01 02:03:00,58.3,43.6,30.18,NNW,336,4.0,7.0,58,0.00,,OVC,0.00,0.00,VWS V14.01,2013-02-01 07:03:00,
2013-02-01 02:05:00,58.2,43.5,30.18,NNW,342,4.0,4.0,58,0.00,,OVC050,0.00,0.00,VWS V14.01,2013-02-01 07:05:00,
2013-02-01 02:08:00,58.2,43.5,30.18,North,355,3.0,7.0,58,0.00,,OVC,0.00,0.00,VWS V14.01,2013-02-01 07:08:00,
2013-02-01 02:10:00,58.2,43.5,30.18,North,351,2.0,5.0,58,0.00,,OVC050,0.00,0.00,VWS V14.01,2013-02-01 07:10:00,
2013-02-01 02:13:00,58.1,43.4,30.18,North,355,3.0,6.0,58,0.00,,OVC,0.00,0.00,VWS V14.01,2013-02-01 07:13:00,
2013-02-01 02:15:00,58.1,43.4,30.18,NNW,341,2.0,6.0,58,0.00,,OVC050,0.00,0.00,VWS V14.01,2013-02-01 07:15:00,
2013-02-01 02:18:00,58.0,43.8,30.18,NNW,332,1.0,5.0,59,0.00,,OVC,0.00,0.00,VWS V14.01,2013-02-01 07:18:00,
2013-02-01 02:20:00,58.0,43.8,30.18,NNW,346,1.0,3.0,59,0.00,,OVC050,0.00,0.00,VWS V14.01,2013-02-01 07:20:00,
2013-02-01 02:23:00,57.9,43.7,30.17,NNW,339,4.0,5.0,59,0.00,,OVC,0.00,0.00,VWS V14.01,2013-02-01 07:23:00,
2013-02-01 02:25:00,57.8,43.6,30.17,NNW,340,2.0,4.0,59,0.00,,OVC050,0.00,0.00,VWS V14.01,2013-02-01 07:25:00,
2013-02-01 02:28:00,57.7,43.5,30.18,NNW,340,2.0,5.0,59,0.00,,OVC,0.00,0.00,VWS V14.01,2013-02-01 07:28:00,
2013-02-01 02:30:00,57.7,43.9,30.18,North,355,4.0,5.0,60,0.00,,OVC050,0.00,0.00,VWS V14.01,2013-02-01 07:30:00,
2013-02-01 02:33:00,57.6,43.8,30.18,NW,324,6.0,6.0,60,0.00,,OVC,0.00,0.00,VWS V14.01,2013-02-01 07:33:00,
2013-02-01 02:35:00,57.5,43.7,30.18,North,350,1.0,5.0,60,0.00,,OVC050,0.00,0.00,VWS V14.01,2013-02-01 07:35:00,
2013-02-01 02:38:00,57.4,43.6,30.18,NNW,339,7.0,7.0,60,0.00,,OVC,0.00,0.00,VWS V14.01,2013-02-01 07:38:00,
2013-02-01 02:40:00,57.4,43.6,30.18,North,351,8.0,8.0,60,0.00,,OVC050,0.00,0.00,VWS V14.01,2013-02-01 07:40:00,
2013-02-01 02:43:00,57.3,43.5,30.18,NNW,341,2.0,4.0,60,0.00,,OVC,0.00,0.00,VWS V14.01,2013-02-01 07:43:00,
2013-02-01 02:45:00,57.3,43.5,30.18,NNW,342,3.0,6.0,60,0.00,,OVC050,0.00,0.00,VWS V14.01,2013-02-01 07:45:00,
2013-02-01 02:48:00,57.3,43.5,30.18,NNW,338,3.0,5.0,60,0.00,,OVC,0.00,0.00,VWS V14.01,2013-02-01 07:48:00,
2013-02-01 02:50:00,57.2,43.0,30.18,NNW,336,3.0,8.0,59,0.00,,OVC050,0.00,0.00,VWS V14.01,2013-02-01 07:50:00,
2013-02-01 02:53:00,57.2,43.0,30.18,NNW,348,4.0,7.0,59,0.00,,OVC,0.00,0.00,VWS V14.01,2013-02-01 07:53:00,
2013-02-01 02:55:00,57.1,42.9,30.18,NNW,344,4.0,4.0,59,0.00,,OVC050,0.00,0.00,VWS V14.01,2013-02-01 07:55:00,
2013-02-01 02:58:00,57.1,42.9,30.18,NNW,333,6.0,6.0,59,0.00,,OVC,0.00,0.00,VWS V14.01,2013-02-01 07:58:00,
2013-02-01 03:00:00,57.0,42.8,30.19,NNW,345,3.0,5.0,59,0.00,,OVC050,0.00,0.00,VWS V14.01,2013-02-01 08:00:00,
2013-02-01 03:03:00,56.9,43.2,30.19,NNW,342,3.0,4.0,60,0.00,,OVC,0.00,0.00,VWS V14.01,2013-02-01 08:03:00,
2013-02-01 03:05:00,56.9,43.2,30.19,NNW,341,1.0,7.0,60,0.00,,OVC050,0.00,0.00,VWS V14.01,2013-02-01 08:05:00,
2013-02-01 03:08:00,56.8,43.1,30.18,NNW,335,3.0,5.0,60,0.00,,OVC,0.00,0.00,VWS V14.01,2013-02-01 08:08:00,
2013-02-01 03:10:00,56.7,43.0,30.18,NNW,337,7.0,8.0,60,0.00,,OVC050,0.00,0.00,VWS V14.01,2013-02-01 08:10:00,
2013-02-01 03:13:00,56.7,43.0,30.18,NNW,342,3.0,6.0,60,0.00,,OVC,0.00,0.00,VWS V14.01,2013-02-01 08:13:00,
2013-02-01 03:15:00,56.6,42.9,30.18,North,355,2.0,7.0,60,0.00,,OVC050,0.00,0.00,VWS V14.01,2013-02-01 08:15:00,
2013-02-01 03:18:00,56.6,42.9,30.18,NNW,346,3.0,4.0,60,0.00,,OVC,0.00,0.00,VWS V14.01,2013-02-01 08:18:00,
2013-02-01 03:20:00,56.5,42.8,30.18,NNW,344,2.0,8.0,60,0.00,,OVC050,0.00,0.00,VWS V14.01,2013-02-01 08:20:00,
2013-02-01 03:23:00,56.5,42.8,30.18,NNW,337,4.0,6.0,60,0.00,,OVC,0.00,0.00,VWS V14.01,2013-02-01 08:23:00,
2013-02-01 03:25:00,56.4,42.7,30.18,NNW,338,1.0,6.0,60,0.00,,OVC050,0.00,0.00,VWS V14.01,2013-02-01 08:25:00,
2013-02-01 03:28:00,56.4,42.7,30.18,NNW,342,3.0,5.0,60,0.00,,OVC,0.00,0.00,VWS V14.01,2013-02-01 08:28:00,
2013-02-01 03:30:00,56.3,42.6,30.18,NNW,348,4.0,6.0,60,0.00,,OVC050,0.00,0.00,VWS V14.01,2013-02-01 08:30:00,
2013-02-01 03:33:00,56.3,42.6,30.18,NNW,333,3.0,7.0,60,0.00,,OVC,0.00,0.00,VWS V14.01,2013-02-01 08:33:00,
2013-02-01 03:35:00,56.2,42.5,30.18,NNW,340,4.0,6.0,60,0.00,,OVC050,0.00,0.00,VWS V14.01,2013-02-01 08:35:00,
2013-02-01 03:38:00,56.2,43.0,30.18,NNW,335,3.0,6.0,61,0.00,,OVC,0.00,0.00,VWS V14.01,2013-02-01 08:38:00,
2013-02-01 03:40:00,56.1,42.8,30.18,NNW,338,6.0,7.0,61,0.00,,OVC050,0.00,0.00,VWS V14.01,2013-02-01 08:40:00,
2013-02-01 03:43:00,56.1,42.8,30.18,NNW,344,2.0,5.0,61,0.00,,OVC,0.00,0.00,VWS V14.01,2013-02-01 08:43:00,
2013-02-01 03:45:00,56.0,42.8,30.18,NNW,339,3.0,4.0,61,0.00,,OVC050,0.00,0.00,VWS V14.01,2013-02-01 08:45:00,
2013-02-01 03:48:00,55.9,42.7,30.18,NNW,341,1.0,5.0,61,0.00,,OVC,0.00,0.00,VWS V14.01,2013-02-01 08:48:00,
2013-02-01 03:50:00,55.9,42.7,30.18,NNW,340,4.0,6.0,61,0.00,,OVC050,0.00,0.00,VWS V14.01,2013-02-01 08:50:00,
2013-02-01 03:55:00,55.7,42.0,30.18,NNW,338,4.0,8.0,60,0.00,,OVC050,0.00,0.00,VWS V14.01,2013-02-01 08:55:00,
2013-02-01 04:01:00,55.7,42.0,30.18,NNW,338,4.0,8.0,60,0.00,,OVC,0.00,0.00,VWS V14.01,2013-02-01 09:01:00,
2013-02-01 04:05:00,55.5,41.9,30.18,North,351,3.0,8.0,60,0.00,,OVC050,0.00,0.00,VWS V14.01,2013-02-01 09:05:00,
2013-02-01 04:06:00,55.5,41.9,30.18,NW,325,5.0,8.0,60,0.00,,OVC,0.00,0.00,VWS V14.01,2013-02-01 09:06:00,
2013-02-01 04:10:00,55.4,41.8,30.18,NNW,338,0.0,5.0,60,0.00,,OVC050,0.00,0.00,VWS V14.01,2013-02-01 09:10:00,
2013-02-01 04:11:00,55.4,41.8,30.18,North,350,2.0,6.0,60,0.00,,OVC,0.00,0.00,VWS V14.01,2013-02-01 09:11:00,
2013-02-01 04:15:00,55.3,41.7,30.17,NNW,343,2.0,5.0,60,0.00,,OVC050,0.00,0.00,VWS V14.01,2013-02-01 09:15:00,
2013-02-01 04:16:00,55.3,41.7,30.17,North,355,3.0,7.0,60,0.00,,OVC,0.00,0.00,VWS V14.01,2013-02-01 09:16:00,
2013-02-01 04:20:00,55.2,41.6,30.17,NNW,335,5.0,5.0,60,0.00,,OVC050,0.00,0.00,VWS V14.01,2013-02-01 09:20:00,
2013-02-01 04:21:00,55.2,41.6,30.18,NNW,327,1.0,5.0,60,0.00,,OVC,0.00,0.00,VWS V14.01,2013-02-01 09:21:00,
2013-02-01 04:25:00,55.1,41.9,30.18,NNW,346,3.0,7.0,61,0.00,,OVC050,0.00,0.00,VWS V14.01,2013-02-01 09:25:00,
2013-02-01 04:26:00,55.0,41.4,30.18,NNW,341,4.0,5.0,60,0.00,,OVC,0.00,0.00,VWS V14.01,2013-02-01 09:26:00,
2013-02-01 04:30:00,54.9,41.7,30.18,NNW,337,3.0,4.0,61,0.00,,OVC,0.00,0.00,VWS V14.01,2013-02-01 09:30:00,
2013-02-01 04:35:00,54.8,41.6,30.18,NW,304,4.0,5.0,61,0.00,,OVC,0.00,0.00,VWS V14.01,2013-02-01 09:35:00,
2013-02-01 04:40:00,54.5,41.3,30.18,NNW,336,4.0,7.0,61,0.00,,OVC,0.00,0.00,VWS V14.01,2013-02-01 09:40:00,
2013-02-01 04:45:00,54.4,41.7,30.18,NNW,342,2.0,5.0,62,0.00,,OVC,0.00,0.00,VWS V14.01,2013-02-01 09:45:00,
2013-02-01 04:50:00,54.2,41.9,30.18,NNW,341,4.0,7.0,63,0.00,,OVC,0.00,0.00,VWS V14.01,2013-02-01 09:50:00,
2013-02-01 04:55:00,54.1,41.8,30.18,NNW,338,4.0,8.0,63,0.00,,OVC050,0.00,0.00,VWS V14.01,2013-02-01 09:55:00,
2013-02-01 05:00:00,52.7,42.1,30.20,NNW,336,3.0,6.0,67,0.00,,CLR,0.00,0.00,VWS V14.01,2013-02-01 10:00:00,
2013-02-01 05:01:00,54.1,41.8,30.18,NNW,338,4.0,8.0,63,0.00,,OVC,0.00,0.00,VWS V14.01,2013-02-01 10:01:00,
2013-02-01 05:05:00,53.7,41.8,30.19,NNW,328,3.0,6.0,64,0.00,,OVC050,0.00,0.00,VWS V14.01,2013-02-01 10:05:00,
2013-02-01 05:06:00,53.7,41.8,30.19,NNW,330,5.0,9.0,64,0.00,,OVC,0.00,0.00,VWS V14.01,2013-02-01 10:06:00,
2013-02-01 05:10:00,53.6,41.7,30.19,NNW,344,5.0,5.0,64,0.00,,OVC050,0.00,0.00,VWS V14.01,2013-02-01 10:10:00,
2013-02-01 05:11:00,53.6,41.7,30.19,NNW,329,2.0,5.0,64,0.00,,OVC,0.00,0.00,VWS V14.01,2013-02-01 10:11:00,
2013-02-01 05:15:00,53.5,41.6,30.19,NNW,330,5.0,6.0,64,0.00,,OVC050,0.00,0.00,VWS V14.01,2013-02-01 10:15:00,
2013-02-01 05:16:00,53.5,42.0,30.19,NNW,338,3.0,6.0,65,0.00,,OVC,0.00,0.00,VWS V14.01,2013-02-01 10:16:00,
2013-02-01 05:20:00,53.4,41.9,30.19,NNW,347,3.0,8.0,65,0.00,,OVC050,0.00,0.00,VWS V14.01,2013-02-01 10:20:00,
2013-02-01 05:21:00,53.4,41.9,30.19,NNW,343,2.0,6.0,65,0.00,,OVC,0.00,0.00,VWS V14.01,2013-02-01 10:21:00,
2013-02-01 05:25:00,53.3,41.8,30.19,NNW,336,3.0,6.0,65,0.00,,OVC050,0.00,0.00,VWS V14.01,2013-02-01 10:25:00,
2013-02-01 05:26:00,53.3,41.8,30.19,NNW,348,4.0,8.0,65,0.00,,OVC,0.00,0.00,VWS V14.01,2013-02-01 10:26:00,
2013-02-01 05:30:00,53.2,41.8,30.19,NNW,348,3.0,7.0,65,0.00,,OVC050,0.00,0.00,VWS V14.01,2013-02-01 10:30:00,
2013-02-01 05:31:00,53.2,41.8,30.19,North,5,2.0,9.0,65,0.00,,OVC,0.00,0.00,VWS V14.01,2013-02-01 10:31:00,
2013-02-01 05:35:00,53.2,41.8,30.19,North,355,2.0,7.0,65,0.00,,OVC050,0.00,0.00,VWS V14.01,2013-02-01 10:35:00,
2013-02-01 05:36:00,53.1,41.7,30.19,NNW,348,2.0,6.0,65,0.00,,OVC,0.00,0.00,VWS V14.01,2013-02-01 10:36:00,
2013-02-01 05:40:00,53.1,41.7,30.19,North,355,4.0,6.0,65,0.00,,OVC050,0.00,0.00,VWS V14.01,2013-02-01 10:40:00,
2013-02-01 05:41:00,53.1,41.7,30.19,North,360,2.0,6.0,65,0.00,,OVC,0.00,0.00,VWS V14.01,2013-02-01 10:41:00,
2013-02-01 05:45:00,53.0,42.0,30.19,North,355,3.0,8.0,66,0.00,,OVC050,0.00,0.00,VWS V14.01,2013-02-01 10:45:00,
2013-02-01 05:46:00,53.0,42.0,30.19,NNW,338,2.0,7.0,66,0.00,,OVC,0.00,0.00,VWS V14.01,2013-02-01 10:46:00,
2013-02-01 05:50:00,52.9,41.9,30.19,NNW,334,8.0,8.0,66,0.00,,OVC050,0.00,0.00,VWS V14.01,2013-02-01 10:50:00,
2013-02-01 05:51:00,52.9,41.9,30.20,NNW,347,2.0,7.0,66,0.00,,OVC,0.00,0.00,VWS V14.01,2013-02-01 10:51:00,
2013-02-01 05:55:00,52.8,41.8,30.20,NW,323,5.0,5.0,66,0.00,,OVC050,0.00,0.00,VWS V14.01,2013-02-01 10:55:00,
2013-02-01 05:56:00,52.7,41.7,30.20,NNW,333,4.0,5.0,66,0.00,,OVC,0.00,0.00,VWS V14.01,2013-02-01 10:56:00,
2013-02-01 06:00:00,52.7,42.1,30.20,NNW,336,3.0,6.0,67,0.00,,OVC050,0.00,0.00,VWS V14.01,2013-02-01 11:00:00,
2013-02-01 06:01:00,52.6,42.0,30.20,NNW,341,2.0,8.0,67,0.00,,OVC,0.00,0.00,VWS V14.01,2013-02-01 11:01:00,
2013-02-01 06:05:00,52.6,42.0,30.20,NW,316,4.0,6.0,67,0.00,,OVC050,0.00,0.00,VWS V14.01,2013-02-01 11:05:00,
2013-02-01 06:06:00,52.5,41.9,30.20,NW,323,6.0,7.0,67,0.00,,OVC,0.00,0.00,VWS V14.01,2013-02-01 11:06:00,
2013-02-01 06:10:00,52.5,41.9,30.20,NNW,342,3.0,5.0,67,0.00,,OVC050,0.00,0.00,VWS V14.01,2013-02-01 11:10:00,
2013-02-01 06:11:00,52.5,41.9,30.20,North,360,2.0,6.0,67,0.00,,OVC,0.00,0.00,VWS V14.01,2013-02-01 11:11:00,
2013-02-01 06:15:00,52.4,42.2,30.21,North,360,6.0,6.0,68,0.00,,OVC050,0.00,0.00,VWS V14.01,2013-02-01 11:15:00,
2013-02-01 06:16:00,52.4,42.2,30.20,NNW,339,5.0,8.0,68,0.00,,OVC,0.00,0.00,VWS V14.01,2013-02-01 11:16:00,
2013-02-01 06:20:00,52.4,42.2,30.20,NNW,339,4.0,6.0,68,0.00,,OVC050,0.00,0.00,VWS V14.01,2013-02-01 11:20:00,
2013-02-01 06:21:00,52.4,42.2,30.20,NNW,346,3.0,7.0,68,0.00,,OVC,0.00,0.00,VWS V14.01,2013-02-01 11:21:00,
2013-02-01 06:25:00,52.4,42.2,30.21,NNW,342,4.0,8.0,68,0.00,,OVC050,0.00,0.00,VWS V14.01,2013-02-01 11:25:00,
2013-02-01 06:26:00,52.3,42.1,30.21,NNW,340,9.0,9.0,68,0.00,,OVC,0.00,0.00,VWS V14.01,2013-02-01 11:26:00,
2013-02-01 06:30:00,52.3,42.5,30.21,NNW,333,4.0,6.0,69,0.00,,OVC050,0.00,0.00,VWS V14.01,2013-02-01 11:30:00,
2013-02-01 06:31:00,52.3,42.5,30.21,NNW,348,2.0,7.0,69,0.00,,OVC,0.00,0.00,VWS V14.01,2013-02-01 11:31:00,
2013-02-01 06:35:00,52.3,42.5,30.21,North,355,2.0,8.0,69,0.00,,OVC050,0.00,0.00,VWS V14.01,2013-02-01 11:35:00,
2013-02-01 06:36:00,52.2,42.3,30.21,NNW,333,4.0,4.0,69,0.00,,OVC,0.00,0.00,VWS V14.01,2013-02-01 11:36:00,
2013-02-01 06:40:00,52.2,42.3,30.21,NNW,339,2.0,4.0,69,0.00,,OVC050,0.00,0.00,VWS V14.01,2013-02-01 11:40:00,
2013-02-01 06:41:00,52.2,42.7,30.21,NNW,340,1.0,3.0,70,0.00,,OVC,0.00,0.00,VWS V14.01,2013-02-01 11:41:00,
2013-02-01 06:45:00,52.1,42.6,30.21,North,355,2.0,7.0,70,0.00,,OVC050,0.00,0.00,VWS V14.01,2013-02-01 11:45:00,
2013-02-01 06:46:00,52.1,42.6,30.21,NNW,341,0.0,6.0,70,0.00,,OVC,0.00,0.00,VWS V14.01,2013-02-01 11:46:00,
2013-02-01 06:50:00,52.1,42.6,30.21,NNW,340,2.0,5.0,70,0.00,,OVC050,0.00,0.00,VWS V14.01,2013-02-01 11:50:00,
2013-02-01 06:51:00,52.1,43.0,30.22,NNW,338,3.0,5.0,71,0.00,,OVC,0.00,0.00,VWS V14.01,2013-02-01 11:51:00,
2013-02-01 06:55:00,52.0,42.9,30.22,NNW,343,2.0,4.0,71,0.00,,OVC050,0.00,0.00,VWS V14.01,2013-02-01 11:55:00,
2013-02-01 06:56:00,52.0,42.9,30.22,NNW,342,4.0,4.0,71,0.00,,OVC,0.00,0.00,VWS V14.01,2013-02-01 11:56:00,
2013-02-01 07:00:00,52.0,43.3,30.22,NNW,338,2.0,4.0,72,0.00,,OVC050,0.00,0.00,VWS V14.01,2013-02-01 12:00:00,
2013-02-01 07:01:00,52.0,43.3,30.22,NNW,347,4.0,6.0,72,0.00,,OVC,0.00,0.00,VWS V14.01,2013-02-01 12:01:00,
2013-02-01 07:05:00,52.0,43.3,30.22,NNW,332,3.0,6.0,72,0.00,,OVC050,0.00,0.00,VWS V14.01,2013-02-01 12:05:00,
2013-02-01 07:06:00,52.0,43.3,30.22,NNW,344,3.0,6.0,72,0.00,,OVC,0.00,5.00,VWS V14.01,2013-02-01 12:06:00,
2013-02-01 07:10:00,52.0,43.3,30.23,NNW,346,2.0,4.0,72,0.00,,OVC050,0.00,5.00,VWS V14.01,2013-02-01 12:10:00,
2013-02-01 07:11:00,52.0,43.3,30.23,NW,326,6.0,8.0,72,0.00,,OVC,0.00,7.00,VWS V14.01,2013-02-01 12:11:00,
2013-02-01 07:15:00,52.1,43.4,30.23,NNW,348,3.0,7.0,72,0.00,,OVC050,0.00,9.00,VWS V14.01,2013-02-01 12:15:00,
2013-02-01 07:16:00,52.0,43.6,30.23,NNW,348,1.0,3.0,73,0.00,,OVC,0.00,11.00,VWS V14.01,2013-02-01 12:16:00,
2013-02-01 07:20:00,52.1,43.7,30.23,NNW,347,3.0,5.0,73,0.00,,OVC050,0.00,14.00,VWS V14.01,2013-02-01 12:20:00,
2013-02-01 07:21:00,52.1,43.7,30.23,NNW,344,3.0,6.0,73,0.00,,OVC,0.00,14.00,VWS V14.01,2013-02-01 12:21:00,
2013-02-01 07:25:00,52.2,43.8,30.23,North,355,2.0,3.0,73,0.00,,OVC050,0.00,16.00,VWS V14.01,2013-02-01 12:25:00,
2013-02-01 07:26:00,52.2,43.8,30.23,NNW,338,2.0,4.0,73,0.00,,OVC,0.00,18.00,VWS V14.01,2013-02-01 12:26:00,
2013-02-01 07:30:00,52.3,43.9,30.23,North,355,1.0,4.0,73,0.00,,OVC050,0.00,21.00,VWS V14.01,2013-02-01 12:30:00,
2013-02-01 07:31:00,52.4,44.0,30.23,NNW,334,5.0,7.0,73,0.00,,OVC,0.00,21.00,VWS V14.01,2013-02-01 12:31:00,
2013-02-01 07:35:00,52.5,44.1,30.23,NNW,336,1.0,5.0,73,0.00,,OVC050,0.00,26.00,VWS V14.01,2013-02-01 12:35:00,
2013-02-01 07:36:00,52.6,44.2,30.23,NNW,338,2.0,4.0,73,0.00,,OVC,0.00,28.00,VWS V14.01,2013-02-01 12:36:00,
2013-02-01 07:40:00,52.8,44.4,30.24,NNW,343,0.0,9.0,73,0.00,,OVC050,0.00,30.00,VWS V14.01,2013-02-01 12:40:00,
2013-02-01 07:41:00,53.0,44.6,30.24,NNW,344,2.0,3.0,73,0.00,,OVC,0.00,40.00,VWS V14.01,2013-02-01 12:41:00,
2013-02-01 07:45:00,53.3,44.5,30.24,NNW,336,1.0,4.0,72,0.00,,OVC050,0.00,51.00,VWS V14.01,2013-02-01 12:45:00,
2013-02-01 07:46:00,53.4,44.6,30.24,NNW,344,4.0,4.0,72,0.00,,OVC,0.00,53.00,VWS V14.01,2013-02-01 12:46:00,
2013-02-01 07:50:00,53.7,44.9,30.24,NNW,344,3.0,3.0,72,0.00,,OVC050,0.00,65.00,VWS V14.01,2013-02-01 12:50:00,
2013-02-01 07:51:00,53.8,44.6,30.24,NNW,340,1.0,6.0,71,0.00,,OVC,0.00,70.00,VWS V14.01,2013-02-01 12:51:00,
2013-02-01 07:55:00,54.2,45.0,30.24,NNW,340,1.0,4.0,71,0.00,,OVC050,0.00,84.00,VWS V14.01,2013-02-01 12:55:00,
2013-02-01 07:56:00,54.4,45.2,30.24,NNW,343,1.0,5.0,71,0.00,,OVC,0.00,90.00,VWS V14.01,2013-02-01 12:56:00,
2013-02-01 08:00:00,54.9,45.3,30.24,North,350,2.0,3.0,70,0.00,,OVC050,0.00,102.00,VWS V14.01,2013-02-01 13:00:00,
2013-02-01 08:01:00,55.0,45.4,30.24,North,5,4.0,6.0,70,0.00,,OVC,0.00,105.00,VWS V14.01,2013-02-01 13:01:00,
2013-02-01 08:05:00,55.5,45.5,30.24,North,360,1.0,8.0,69,0.00,,OVC050,0.00,118.00,VWS V14.01,2013-02-01 13:05:00,
2013-02-01 08:06:00,55.6,45.6,30.25,North,360,3.0,3.0,69,0.00,,OVC,0.00,128.00,VWS V14.01,2013-02-01 13:06:00,
2013-02-01 08:10:00,56.0,46.0,30.25,NNW,342,1.0,6.0,69,0.00,,OVC050,0.00,142.00,VWS V14.01,2013-02-01 13:10:00,
2013-02-01 08:11:00,56.2,45.8,30.25,North,355,3.0,6.0,68,0.00,,OVC,0.00,149.00,VWS V14.01,2013-02-01 13:11:00,
2013-02-01 08:15:00,56.6,46.2,30.25,NW,326,4.0,7.0,68,0.00,,OVC050,0.00,160.00,VWS V14.01,2013-02-01 13:15:00,
2013-02-01 08:16:00,56.7,46.3,30.25,NNW,348,3.0,7.0,68,0.00,,OVC,0.00,172.00,VWS V14.01,2013-02-01 13:16:00,
2013-02-01 08:20:00,57.1,46.3,30.25,NNW,340,3.0,11.0,67,0.00,,OVC050,0.00,188.00,VWS V14.01,2013-02-01 13:20:00,
2013-02-01 08:21:00,57.2,46.4,30.25,NNW,339,8.0,8.0,67,0.00,,OVC,0.00,195.00,VWS V14.01,2013-02-01 13:21:00,
2013-02-01 08:25:00,57.4,46.5,30.25,North,355,5.0,8.0,67,0.00,,OVC050,0.00,211.00,VWS V14.01,2013-02-01 13:25:00,
2013-02-01 08:26:00,57.5,46.6,30.25,North,10,3.0,5.0,67,0.00,,OVC,0.00,216.00,VWS V14.01,2013-02-01 13:26:00,
2013-02-01 08:30:00,57.8,46.9,30.25,NNW,338,7.0,9.0,67,0.00,,OVC050,0.00,229.00,VWS V14.01,2013-02-01 13:30:00,
2013-02-01 08:31:00,57.9,46.6,30.25,North,351,7.0,10.0,66,0.00,,OVC,0.00,236.00,VWS V14.01,2013-02-01 13:31:00,
2013-02-01 08:35:00,58.2,46.9,30.25,NNW,336,6.0,6.0,66,0.00,,OVC050,0.00,248.00,VWS V14.01,2013-02-01 13:35:00,
2013-02-01 08:36:00,58.4,47.1,30.25,NNE,19,2.0,6.0,66,0.00,,OVC,0.00,250.00,VWS V14.01,2013-02-01 13:36:00,
2013-02-01 08:40:00,58.7,47.4,30.25,North,355,3.0,8.0,66,0.00,,OVC050,0.00,265.00,VWS V14.01,2013-02-01 13:40:00,
2013-02-01 08:41:00,58.8,47.5,30.25,NNW,345,1.0,9.0,66,0.00,,OVC,0.00,267.00,VWS V14.01,2013-02-01 13:41:00,
2013-02-01 08:45:00,59.2,47.5,30.25,NNW,343,7.0,10.0,65,0.00,,OVC050,0.00,281.00,VWS V14.01,2013-02-01 13:45:00,
2013-02-01 08:46:00,59.3,47.5,30.25,NNE,17,1.0,10.0,65,0.00,,OVC,0.00,287.00,VWS V14.01,2013-02-01 13:46:00,
2013-02-01 08:50:00,59.6,47.8,30.25,North,355,2.0,3.0,65,0.00,,OVC050,0.00,299.00,VWS V14.01,2013-02-01 13:50:00,
2013-02-01 08:51:00,59.8,48.0,30.26,North,5,1.0,4.0,65,0.00,,OVC,0.00,301.00,VWS V14.01,2013-02-01 13:51:00,
2013-02-01 08:55:00,60.2,48.4,30.26,North,355,2.0,9.0,65,0.00,,OVC050,0.00,316.00,VWS V14.01,2013-02-01 13:55:00,
2013-02-01 08:56:00,60.3,48.1,30.26,NNW,346,5.0,11.0,64,0.00,,OVC,0.00,323.00,VWS V14.01,2013-02-01 13:56:00,
2013-02-01 09:00:00,60.6,48.4,30.26,North,360,11.0,11.0,64,0.00,,OVC050,0.00,336.00,VWS V14.01,2013-02-01 14:00:00,
2013-02-01 09:01:00,60.7,48.5,30.26,NNW,334,5.0,11.0,64,0.00,,OVC,0.00,341.00,VWS V14.01,2013-02-01 14:01:00,
2013-02-01 09:05:00,61.1,48.8,30.26,NNW,333,8.0,8.0,64,0.00,,OVC050,0.00,352.00,VWS V14.01,2013-02-01 14:05:00,
2013-02-01 09:06:00,61.1,48.4,30.26,NNW,342,6.0,12.0,63,0.00,,OVC,0.00,359.00,VWS V14.01,2013-02-01 14:06:00,
2013-02-01 09:10:00,61.4,48.7,30.27,North,360,4.0,7.0,63,0.00,,OVC050,0.00,371.00,VWS V14.01,2013-02-01 14:10:00,
2013-02-01 09:11:00,61.4,48.7,30.27,North,355,6.0,12.0,63,0.00,,OVC,0.00,374.00,VWS V14.01,2013-02-01 14:11:00,
2013-02-01 09:15:00,61.7,49.0,30.27,NNE,18,4.0,5.0,63,0.00,,OVC050,0.00,388.00,VWS V14.01,2013-02-01 14:15:00,
2013-02-01 09:16:00,61.8,49.1,30.27,North,5,4.0,4.0,63,0.00,,OVC,0.00,392.00,VWS V14.01,2013-02-01 14:16:00,
2013-02-01 09:20:00,62.0,48.8,30.27,North,355,3.0,9.0,62,0.00,,OVC050,0.00,403.00,VWS V14.01,2013-02-01 14:20:00,
2013-02-01 09:21:00,62.1,48.9,30.27,NNW,338,8.0,12.0,62,0.00,,OVC,0.00,408.00,VWS V14.01,2013-02-01 14:21:00,
2013-02-01 09:25:00,62.3,49.1,30.27,North,5,6.0,8.0,62,0.00,,OVC050,0.00,420.00,VWS V14.01,2013-02-01 14:25:00,
2013-02-01 09:26:00,62.5,49.3,30.27,NNW,339,3.0,9.0,62,0.00,,OVC,0.00,427.00,VWS V14.01,2013-02-01 14:26:00,
2013-02-01 09:30:00,62.7,49.5,30.27,North,5,4.0,10.0,62,0.00,,OVC050,0.00,436.00,VWS V14.01,2013-02-01 14:30:00,
2013-02-01 09:31:00,62.9,49.7,30.27,North,5,3.0,7.0,62,0.00,,OVC,0.00,443.00,VWS V14.01,2013-02-01 14:31:00,
2013-02-01 09:35:00,63.3,50.1,30.27,North,355,5.0,11.0,62,0.00,,OVC050,0.00,454.00,VWS V14.01,2013-02-01 14:35:00,
2013-02-01 09:36:00,63.5,49.8,30.27,North,355,2.0,10.0,61,0.00,,OVC,0.00,457.00,VWS V14.01,2013-02-01 14:36:00,
2013-02-01 09:40:00,63.8,50.1,30.28,North,355,8.0,10.0,61,0.00,,OVC050,0.00,469.00,VWS V14.01,2013-02-01 14:40:00,
2013-02-01 09:41:00,63.9,50.2,30.28,NNW,333,11.0,11.0,61,0.00,,OVC,0.00,469.00,VWS V14.01,2013-02-01 14:41:00,
2013-02-01 09:45:00,64.1,50.0,30.28,NNW,331,5.0,6.0,60,0.00,,OVC050,0.00,483.00,VWS V14.01,2013-02-01 14:45:00,
2013-02-01 09:46:00,64.2,50.0,30.28,NNW,338,5.0,7.0,60,0.00,,OVC,0.00,489.00,VWS V14.01,2013-02-01 14:46:00,
2013-02-01 09:50:00,64.5,50.3,30.28,NW,323,4.0,12.0,60,0.00,,OVC050,0.00,501.00,VWS V14.01,2013-02-01 14:50:00,
2013-02-01 09:51:00,64.7,50.5,30.28,NNE,14,5.0,10.0,60,0.00,,OVC,0.00,501.00,VWS V14.01,2013-02-01 14:51:00,
2013-02-01 09:55:00,65.1,50.4,30.28,North,355,3.0,9.0,59,0.00,,OVC050,0.00,515.00,VWS V14.01,2013-02-01 14:55:00,
2013-02-01 09:56:00,65.3,50.6,30.28,North,5,4.0,8.0,59,0.00,,OVC,0.00,520.00,VWS V14.01,2013-02-01 14:56:00,
2013-02-01 10:00:00,65.6,50.9,30.28,North,355,8.0,8.0,59,0.00,,OVC050,0.00,529.00,VWS V14.01,2013-02-01 15:00:00,
2013-02-01 10:01:00,65.7,50.5,30.28,North,355,3.0,8.0,58,0.00,,OVC,0.00,534.00,VWS V14.01,2013-02-01 15:01:00,
2013-02-01 10:05:00,66.1,51.4,30.28,NNE,25,1.0,3.0,59,0.00,,OVC050,0.00,545.00,VWS V14.01,2013-02-01 15:05:00,
2013-02-01 10:06:00,66.3,51.6,30.28,NE,36,2.0,5.0,59,0.00,,OVC,0.00,552.00,VWS V14.01,2013-02-01 15:06:00,
2013-02-01 10:10:00,66.8,51.6,30.28,NNE,32,2.0,4.0,58,0.00,,OVC050,0.00,561.00,VWS V14.01,2013-02-01 15:10:00,
2013-02-01 10:11:00,67.0,51.8,30.28,NNE,28,2.0,2.0,58,0.00,,OVC,0.00,564.00,VWS V14.01,2013-02-01 15:11:00,
2013-02-01 10:15:00,67.7,52.4,30.28,North,9,4.0,12.0,58,0.00,,OVC050,0.00,573.00,VWS V14.01,2013-02-01 15:15:00,
2013-02-01 10:16:00,67.8,52.0,30.28,North,360,2.0,6.0,57,0.00,,OVC,0.00,577.00,VWS V14.01,2013-02-01 15:16:00,
2013-02-01 10:20:00,68.1,51.8,30.28,NNE,20,2.0,6.0,56,0.00,,OVC050,0.00,587.00,VWS V14.01,2013-02-01 15:20:00,
2013-02-01 10:21:00,68.2,52.4,30.27,NNE,18,4.0,7.0,57,0.00,,OVC,0.00,592.00,VWS V14.01,2013-02-01 15:21:00,
2013-02-01 10:25:00,68.8,52.5,30.27,North,355,3.0,9.0,56,0.00,,OVC050,0.00,603.00,VWS V14.01,2013-02-01 15:25:00,
2013-02-01 10:26:00,69.0,52.7,30.27,North,355,4.0,5.0,56,0.00,,OVC,0.00,605.00,VWS V14.01,2013-02-01 15:26:00,
2013-02-01 10:30:00,69.3,53.0,30.27,NE,55,5.0,5.0,56,0.00,,OVC050,0.00,613.00,VWS V14.01,2013-02-01 15:30:00,
2013-02-01 10:31:00,69.4,52.5,30.27,NNE,12,2.0,7.0,55,0.00,,OVC,0.00,619.00,VWS V14.01,2013-02-01 15:31:00,
2013-02-01 10:35:00,69.1,52.3,30.27,NE,44,4.0,7.0,55,0.00,,OVC050,0.00,626.00,VWS V14.01,2013-02-01 15:35:00,
2013-02-01 10:36:00,69.2,53.3,30.27,North,355,5.0,7.0,57,0.00,,OVC,0.00,631.00,VWS V14.01,2013-02-01 15:36:00,
2013-02-01 10:40:00,69.4,53.0,30.27,North,5,3.0,3.0,56,0.00,,OVC050,0.00,638.00,VWS V14.01,2013-02-01 15:40:00,
2013-02-01 10:41:00,69.6,52.7,30.27,NNE,29,3.0,4.0,55,0.00,,OVC,0.00,642.00,VWS V14.01,2013-02-01 15:41:00,
2013-02-01 10:45:00,69.6,52.7,30.27,North,5,6.0,10.0,55,0.00,,OVC050,0.00,650.00,VWS V14.01,2013-02-01 15:45:00,
2013-02-01 10:46:00,69.6,53.2,30.27,North,5,3.0,7.0,56,0.00,,OVC,0.00,652.00,VWS V14.01,2013-02-01 15:46:00,
2013-02-01 10:50:00,70.1,53.7,30.27,NNE,24,3.0,6.0,56,0.00,,OVC050,0.00,661.00,VWS V14.01,2013-02-01 15:50:00,
2013-02-01 10:51:00,70.3,53.9,30.27,NE,34,2.0,7.0,56,0.00,,OVC,0.00,663.00,VWS V14.01,2013-02-01 15:51:00,
2013-02-01 10:55:00,70.8,53.8,30.27,North,11,3.0,7.0,55,0.00,,OVC050,0.00,673.00,VWS V14.01,2013-02-01 15:55:00,
2013-02-01 10:56:00,70.8,53.3,30.27,North,360,2.0,4.0,54,0.00,,OVC,0.00,675.00,VWS V14.01,2013-02-01 15:56:00,
2013-02-01 11:00:00,70.7,53.3,30.28,NE,56,1.0,11.0,54,0.00,,OVC050,0.00,686.00,VWS V14.01,2013-02-01 16:00:00,
2013-02-01 11:01:00,70.8,53.3,30.28,North,5,4.0,5.0,54,0.00,,OVC,0.00,686.00,VWS V14.01,2013-02-01 16:01:00,
2013-02-01 11:05:00,71.2,53.7,30.28,North,10,5.0,9.0,54,0.00,,OVC050,0.00,691.00,VWS V14.01,2013-02-01 16:05:00,
2013-02-01 11:06:00,71.3,53.8,30.28,North,9,2.0,7.0,54,0.00,,OVC,0.00,698.00,VWS V14.01,2013-02-01 16:06:00,
2013-02-01 11:10:00,71.3,54.3,30.28,North,360,3.0,6.0,55,0.00,,OVC050,0.00,710.00,VWS V14.01,2013-02-01 16:10:00,
2013-02-01 11:11:00,71.4,53.9,30.27,North,360,7.0,7.0,54,0.00,,OVC,0.00,717.00,VWS V14.01,2013-02-01 16:11:00,
2013-02-01 11:15:00,71.5,53.5,30.27,North,360,4.0,7.0,53,0.00,,OVC050,0.00,724.00,VWS V14.01,2013-02-01 16:15:00,
2013-02-01 11:16:00,71.7,54.7,30.27,ENE,74,5.0,5.0,55,0.00,,OVC,0.00,729.00,VWS V14.01,2013-02-01 16:16:00,
2013-02-01 11:20:00,72.1,54.0,30.27,NNE,15,2.0,10.0,53,0.00,,OVC050,0.00,740.00,VWS V14.01,2013-02-01 16:20:00,
2013-02-01 11:21:00,72.2,54.1,30.27,NE,37,3.0,7.0,53,0.00,,OVC,0.00,744.00,VWS V14.01,2013-02-01 16:21:00,
2013-02-01 11:25:00,72.0,54.0,30.27,NE,55,6.0,8.0,53,0.00,,OVC050,0.00,715.00,VWS V14.01,2013-02-01 16:25:00,
2013-02-01 11:26:00,72.0,54.0,30.27,NNE,23,2.0,6.0,53,0.00,,OVC,0.00,698.00,VWS V14.01,2013-02-01 16:26:00,
2013-02-01 11:30:00,72.3,54.2,30.27,NNE,26,4.0,4.0,53,0.00,,OVC050,0.00,682.00,VWS V14.01,2013-02-01 16:30:00,
2013-02-01 11:31:00,72.2,54.1,30.27,ENE,78,7.0,8.0,53,0.00,,OVC,0.00,749.00,VWS V14.01,2013-02-01 16:31:00,
2013-02-01 11:35:00,72.1,55.1,30.27,North,9,1.0,3.0,55,0.00,,OVC050,0.00,689.00,VWS V14.01,2013-02-01 16:35:00,
2013-02-01 11:36:00,72.3,54.7,30.26,NNE,19,4.0,7.0,54,0.00,,OVC,0.00,661.00,VWS V14.01,2013-02-01 16:36:00,
2013-02-01 11:40:00,72.5,54.9,30.27,North,5,1.0,3.0,54,0.00,,OVC050,0.00,752.00,VWS V14.01,2013-02-01 16:40:00,
2013-02-01 11:41:00,72.6,54.5,30.26,NNW,348,2.0,3.0,53,0.00,,OVC,0.00,758.00,VWS V14.01,2013-02-01 16:41:00,
2013-02-01 11:45:00,73.1,54.5,30.27,NNE,24,3.0,8.0,52,0.00,,OVC050,0.00,752.00,VWS V14.01,2013-02-01 16:45:00,
2013-02-01 11:46:00,73.0,54.4,30.26,NNE,33,4.0,5.0,52,0.00,,OVC,0.00,747.00,VWS V14.01,2013-02-01 16:46:00,
2013-02-01 11:50:00,73.1,54.5,30.26,NNE,29,2.0,10.0,52,0.00,,OVC050,0.00,766.00,VWS V14.01,2013-02-01 16:50:00,
2013-02-01 11:51:00,73.0,54.4,30.26,NNW,336,5.0,7.0,52,0.00,,OVC,0.00,765.00,VWS V14.01,2013-02-01 16:51:00,
2013-02-01 11:55:00,73.4,54.7,30.26,North,5,4.0,5.0,52,0.00,,OVC050,0.00,766.00,VWS V14.01,2013-02-01 16:55:00,
2013-02-01 11:56:00,73.5,54.8,30.26,NNE,27,4.0,5.0,52,0.00,,OVC,0.00,765.00,VWS V14.01,2013-02-01 16:56:00,
2013-02-01 12:00:00,73.5,54.8,30.26,NE,35,3.0,7.0,52,0.00,,OVC050,0.00,780.00,VWS V14.01,2013-02-01 17:00:00,
2013-02-01 12:01:00,73.5,54.8,30.26,NE,42,9.0,9.0,52,0.00,,OVC,0.00,780.00,VWS V14.01,2013-02-01 17:01:00,
2013-02-01 12:05:00,73.4,54.2,30.26,NNE,22,9.0,9.0,51,0.00,,OVC050,0.00,796.00,VWS V14.01,2013-02-01 17:05:00,
2013-02-01 12:06:00,73.3,53.6,30.26,NNE,32,3.0,11.0,50,0.00,,OVC,0.00,800.00,VWS V14.01,2013-02-01 17:06:00,
2013-02-01 12:10:00,73.4,54.7,30.26,NE,34,3.0,11.0,52,0.00,,OVC050,0.00,837.00,VWS V14.01,2013-02-01 17:10:00,
2013-02-01 12:11:00,73.6,54.4,30.26,NE,46,5.0,8.0,51,0.00,,OVC,0.00,800.00,VWS V14.01,2013-02-01 17:11:00,
2013-02-01 12:15:00,73.9,54.7,30.26,North,5,3.0,5.0,51,0.00,,OVC050,0.00,772.00,VWS V14.01,2013-02-01 17:15:00,
2013-02-01 12:16:00,74.1,55.4,30.26,North,11,3.0,7.0,52,0.00,,OVC,0.00,793.00,VWS V14.01,2013-02-01 17:16:00,
2013-02-01 12:20:00,74.2,54.9,30.25,North,10,4.0,6.0,51,0.00,,OVC050,0.00,807.00,VWS V14.01,2013-02-01 17:20:00,
2013-02-01 12:21:00,74.4,55.1,30.26,NNW,334,5.0,8.0,51,0.00,,OVC,0.00,800.00,VWS V14.01,2013-02-01 17:21:00,
2013-02-01 12:25:00,75.5,56.1,30.26,NE,48,7.0,9.0,51,0.00,,OVC050,0.00,800.00,VWS V14.01,2013-02-01 17:25:00,
2013-02-01 12:26:00,75.4,54.9,30.25,NW,318,4.0,9.0,49,0.00,,OVC,0.00,800.00,VWS V14.01,2013-02-01 17:26:00,
2013-02-01 12:30:00,75.4,54.9,30.25,NE,36,5.0,9.0,49,0.00,,OVC050,0.00,826.00,VWS V14.01,2013-02-01 17:30:00,
2013-02-01 12:31:00,75.2,54.2,30.25,ENE,76,4.0,6.0,48,0.00,,OVC,0.00,854.00,VWS V14.01,2013-02-01 17:31:00,
2013-02-01 12:35:00,74.5,54.7,30.25,North,5,4.0,7.0,50,0.00,,OVC050,0.00,863.00,VWS V14.01,2013-02-01 17:35:00,
2013-02-01 12:36:00,74.6,54.8,30.25,East,84,14.0,14.0,50,0.00,,OVC,0.00,870.00,VWS V14.01,2013-02-01 17:36:00,
2013-02-01 12:40:00,74.1,53.7,30.25,NNE,17,2.0,5.0,49,0.00,,OVC050,0.00,167.00,VWS V14.01,2013-02-01 17:40:00,
2013-02-01 12:41:00,73.7,53.9,30.25,NNW,339,3.0,7.0,50,0.00,,OVC,0.00,172.00,VWS V14.01,2013-02-01 17:41:00,
2013-02-01 12:45:00,72.8,53.6,30.25,ENE,61,4.0,4.0,51,0.00,,OVC050,0.00,176.00,VWS V14.01,2013-02-01 17:45:00,
2013-02-01 12:46:00,72.5,52.8,30.26,NNE,25,6.0,10.0,50,0.00,,OVC,0.00,181.00,VWS V14.01,2013-02-01 17:46:00,
2013-02-01 12:50:00,71.7,53.2,30.25,NE,56,1.0,8.0,52,0.00,,OVC050,0.00,176.00,VWS V14.01,2013-02-01 17:50:00,
2013-02-01 12:51:00,71.9,53.9,30.25,NE,52,3.0,9.0,53,0.00,,OVC,0.00,956.00,VWS V14.01,2013-02-01 17:51:00,
2013-02-01 12:55:00,72.6,52.9,30.25,NNE,30,4.0,12.0,50,0.00,,OVC050,0.00,160.00,VWS V14.01,2013-02-01 17:55:00,
2013-02-01 12:56:00,72.5,53.4,30.25,NE,35,3.0,5.0,51,0.00,,OVC,0.00,183.00,VWS V14.01,2013-02-01 17:56:00,
2013-02-01 13:00:00,72.6,54.5,30.25,ENE,61,9.0,9.0,53,0.00,,OVC050,0.00,930.00,VWS V14.01,2013-02-01 18:00:00,
2013-02-01 13:01:00,73.0,54.4,30.25,NE,51,3.0,12.0,52,0.00,,OVC,0.00,949.00,VWS V14.01,2013-02-01 18:01:00,
2013-02-01 13:05:00,73.9,53.6,30.25,NE,34,4.0,6.0,49,0.00,,OVC050,0.00,179.00,VWS V14.01,2013-02-01 18:05:00,
2013-02-01 13:06:00,73.7,52.8,30.25,NNE,26,1.0,6.0,48,0.00,,OVC,0.00,179.00,VWS V14.01,2013-02-01 18:06:00,
2013-02-01 13:10:00,72.9,52.6,30.24,ENE,65,4.0,9.0,49,0.00,,OVC050,0.00,255.00,VWS V14.01,2013-02-01 18:10:00,
2013-02-01 13:11:00,72.7,53.5,30.24,NE,44,2.0,6.0,51,0.00,,OVC,0.00,255.00,VWS V14.01,2013-02-01 18:11:00,
2013-02-01 13:15:00,73.4,53.1,30.24,ENE,74,10.0,13.0,49,0.00,,OVC050,0.00,278.00,VWS V14.01,2013-02-01 18:15:00,
2013-02-01 13:16:00,73.4,52.5,30.24,NE,53,13.0,13.0,48,0.00,,OVC,0.00,279.00,VWS V14.01,2013-02-01 18:16:00,
2013-02-01 13:20:00,73.3,54.1,30.24,NNE,32,2.0,4.0,51,0.00,,OVC050,0.00,953.00,VWS V14.01,2013-02-01 18:20:00,
2013-02-01 13:21:00,73.6,54.4,30.24,ENE,76,1.0,3.0,51,0.00,,OVC,0.00,953.00,VWS V14.01,2013-02-01 18:21:00,
2013-02-01 13:25:00,73.7,52.2,30.23,NNE,33,5.0,13.0,47,0.00,,OVC050,0.00,155.00,VWS V14.01,2013-02-01 18:25:00,
2013-02-01 13:26:00,73.4,52.5,30.23,NE,45,8.0,14.0,48,0.00,,OVC,0.00,146.00,VWS V14.01,2013-02-01 18:26:00,
2013-02-01 13:30:00,72.6,52.4,30.23,NE,42,5.0,7.0,49,0.00,,OVC050,0.00,867.00,VWS V14.01,2013-02-01 18:30:00,
2013-02-01 13:31:00,72.8,52.5,30.23,NE,36,2.0,8.0,49,0.00,,OVC,0.00,875.00,VWS V14.01,2013-02-01 18:31:00,
2013-02-01 13:35:00,74.4,54.6,30.23,NE,41,9.0,12.0,50,0.00,,OVC050,0.00,965.00,VWS V14.01,2013-02-01 18:35:00,
2013-02-01 13:36:00,74.5,53.0,30.23,NE,46,7.0,12.0,47,0.00,,OVC,0.00,253.00,VWS V14.01,2013-02-01 18:36:00,
2013-02-01 13:40:00,73.5,51.5,30.23,NE,38,3.0,15.0,46,0.00,,OVC050,0.00,186.00,VWS V14.01,2013-02-01 18:40:00,
2013-02-01 13:41:00,73.2,52.4,30.23,NNE,32,3.0,8.0,48,0.00,,OVC,0.00,216.00,VWS V14.01,2013-02-01 18:41:00,
2013-02-01 13:45:00,73.0,53.3,30.23,NNE,31,3.0,10.0,50,0.00,,OVC050,0.00,223.00,VWS V14.01,2013-02-01 18:45:00,
2013-02-01 13:46:00,73.0,52.7,30.23,NE,36,3.0,7.0,49,0.00,,OVC,0.00,230.00,VWS V14.01,2013-02-01 18:46:00,
2013-02-01 13:50:00,73.3,54.6,30.23,ENE,65,9.0,13.0,52,0.00,,OVC050,0.00,923.00,VWS V14.01,2013-02-01 18:50:00,
2013-02-01 13:51:00,73.6,53.8,30.23,ENE,63,7.0,13.0,50,0.00,,OVC,0.00,935.00,VWS V14.01,2013-02-01 18:51:00,
2013-02-01 13:55:00,74.1,52.6,30.23,North,360,4.0,11.0,47,0.00,,OVC050,0.00,575.00,VWS V14.01,2013-02-01 18:55:00,
2013-02-01 13:56:00,74.0,53.1,30.23,NNE,30,6.0,12.0,48,0.00,,OVC,0.00,575.00,VWS V14.01,2013-02-01 18:56:00,
2013-02-01 14:00:00,73.3,53.0,30.23,NNE,13,10.0,10.0,49,0.00,,OVC050,0.00,847.00,VWS V14.01,2013-02-01 19:00:00,
2013-02-01 14:01:00,73.3,53.0,30.22,NNE,28,3.0,11.0,49,0.00,,OVC,0.00,851.00,VWS V14.01,2013-02-01 19:01:00,
2013-02-01 14:05:00,74.0,53.7,30.22,ENE,64,7.0,14.0,49,0.00,,OVC050,0.00,867.00,VWS V14.01,2013-02-01 19:05:00,
2013-02-01 14:06:00,74.1,53.7,30.22,NE,51,10.0,16.0,49,0.00,,OVC,0.00,867.00,VWS V14.01,2013-02-01 19:06:00,
2013-02-01 14:10:00,73.9,53.0,30.22,ENE,60,9.0,17.0,48,0.00,,OVC050,0.00,376.00,VWS V14.01,2013-02-01 19:10:00,
2013-02-01 14:11:00,74.0,52.5,30.22,ENE,78,7.0,14.0,47,0.00,,OVC,0.00,816.00,VWS V14.01,2013-02-01 19:11:00,
2013-02-01 14:15:00,74.3,53.9,30.22,NNE,26,3.0,7.0,49,0.00,,OVC050,0.00,844.00,VWS V14.01,2013-02-01 19:15:00,
2013-02-01 14:16:00,74.6,54.2,30.22,NNE,27,3.0,8.0,49,0.00,,OVC,0.00,856.00,VWS V14.01,2013-02-01 19:16:00,
2013-02-01 14:20:00,75.5,53.9,30.22,NE,49,10.0,15.0,47,0.00,,OVC050,0.00,904.00,VWS V14.01,2013-02-01 19:20:00,
2013-02-01 14:21:00,75.4,53.2,30.22,NE,38,6.0,14.0,46,0.00,,OVC,0.00,904.00,VWS V14.01,2013-02-01 19:21:00,
2013-02-01 14:25:00,74.3,53.9,30.22,NNE,26,3.0,4.0,49,0.00,,OVC050,0.00,255.00,VWS V14.01,2013-02-01 19:25:00,
2013-02-01 14:26:00,74.0,53.7,30.22,NE,44,2.0,4.0,49,0.00,,OVC,0.00,255.00,VWS V14.01,2013-02-01 19:26:00,
2013-02-01 14:30:00,73.9,54.7,30.22,ENE,60,14.0,20.0,51,0.00,,OVC050,0.00,172.00,VWS V14.01,2013-02-01 19:30:00,
2013-02-01 14:31:00,73.7,54.5,30.22,NE,39,4.0,14.0,51,0.00,,OVC,0.00,158.00,VWS V14.01,2013-02-01 19:31:00,
2013-02-01 14:35:00,72.7,54.1,30.22,NE,40,3.0,12.0,52,0.00,,OVC050,0.00,148.00,VWS V14.01,2013-02-01 19:35:00,
2013-02-01 14:36:00,72.5,54.4,30.22,ENE,65,4.0,8.0,53,0.00,,OVC,0.00,148.00,VWS V14.01,2013-02-01 19:36:00,
2013-02-01 14:40:00,72.7,55.1,30.21,NE,34,12.0,12.0,54,0.00,,OVC050,0.00,745.00,VWS V14.01,2013-02-01 19:40:00,
2013-02-01 14:41:00,72.9,55.3,30.22,NE,42,11.0,16.0,54,0.00,,OVC,0.00,759.00,VWS V14.01,2013-02-01 19:41:00,
2013-02-01 14:45:00,73.4,55.2,30.22,East,86,3.0,8.0,53,0.00,,OVC050,0.00,796.00,VWS V14.01,2013-02-01 19:45:00,
2013-02-01 14:46:00,73.6,56.0,30.21,NE,43,3.0,6.0,54,0.00,,OVC,0.00,798.00,VWS V14.01,2013-02-01 19:46:00,
2013-02-01 14:50:00,73.7,53.9,30.22,NE,34,3.0,10.0,50,0.00,,OVC050,0.00,160.00,VWS V14.01,2013-02-01 19:50:00,
2013-02-01 14:51:00,73.5,53.7,30.22,NNE,12,4.0,6.0,50,0.00,,OVC,0.00,149.00,VWS V14.01,2013-02-01 19:51:00,
2013-02-01 14:55:00,72.7,54.6,30.22,ENE,63,3.0,11.0,53,0.00,,OVC050,0.00,188.00,VWS V14.01,2013-02-01 19:55:00,
2013-02-01 14:56:00,72.6,54.5,30.22,NE,38,10.0,14.0,53,0.00,,OVC,0.00,691.00,VWS V14.01,2013-02-01 19:56:00,
2013-02-01 15:00:00,72.9,55.3,30.22,NNE,28,3.0,13.0,54,0.00,,OVC050,0.00,668.00,VWS V14.01,2013-02-01 20:00:00,
2013-02-01 15:01:00,73.1,55.5,30.22,NE,38,5.0,7.0,54,0.00,,OVC,0.00,649.00,VWS V14.01,2013-02-01 20:01:00,
2013-02-01 15:05:00,73.7,55.0,30.22,NNE,31,3.0,12.0,52,0.00,,OVC050,0.00,647.00,VWS V14.01,2013-02-01 20:05:00,
2013-02-01 15:06:00,73.8,54.6,30.21,NNE,18,4.0,9.0,51,0.00,,OVC,0.00,636.00,VWS V14.01,2013-02-01 20:06:00,
2013-02-01 15:10:00,73.9,54.7,30.21,NNE,27,3.0,8.0,51,0.00,,OVC050,0.00,631.00,VWS V14.01,2013-02-01 20:10:00,
2013-02-01 15:11:00,73.7,54.5,30.21,NNE,32,3.0,8.0,51,0.00,,OVC,0.00,130.00,VWS V14.01,2013-02-01 20:11:00,
2013-02-01 15:15:00,73.3,54.6,30.21,North,355,2.0,8.0,52,0.00,,OVC050,0.00,633.00,VWS V14.01,2013-02-01 20:15:00,
2013-02-01 15:16:00,73.4,55.2,30.21,ENE,69,10.0,10.0,53,0.00,,OVC,0.00,657.00,VWS V14.01,2013-02-01 20:16:00,
2013-02-01 15:20:00,73.9,55.7,30.21,NE,50,4.0,5.0,53,0.00,,OVC050,0.00,643.00,VWS V14.01,2013-02-01 20:20:00,
2013-02-01 15:21:00,74.0,55.3,30.21,NNE,29,4.0,6.0,52,0.00,,OVC,0.00,628.00,VWS V14.01,2013-02-01 20:21:00,
2013-02-01 15:25:00,74.0,55.8,30.21,NE,49,8.0,21.0,53,0.00,,OVC050,0.00,624.00,VWS V14.01,2013-02-01 20:25:00,
2013-02-01 15:26:00,73.9,55.2,30.21,NNE,32,5.0,21.0,52,0.00,,OVC,0.00,629.00,VWS V14.01,2013-02-01 20:26:00,
2013-02-01 15:30:00,73.8,55.1,30.21,NE,47,9.0,12.0,52,0.00,,OVC050,0.00,642.00,VWS V14.01,2013-02-01 20:30:00,
2013-02-01 15:31:00,73.9,54.1,30.21,NNE,32,2.0,12.0,50,0.00,,OVC,0.00,640.00,VWS V14.01,2013-02-01 20:31:00,
2013-02-01 15:35:00,73.9,55.2,30.21,NE,44,8.0,12.0,52,0.00,,OVC050,0.00,594.00,VWS V14.01,2013-02-01 20:35:00,
2013-02-01 15:36:00,73.8,55.1,30.21,NNE,21,4.0,10.0,52,0.00,,OVC,0.00,573.00,VWS V14.01,2013-02-01 20:36:00,
2013-02-01 15:40:00,73.7,53.9,30.21,ENE,61,12.0,17.0,50,0.00,,OVC,0.00,561.00,VWS V14.01,2013-02-01 20:40:00,
2013-02-01 15:45:00,73.2,54.5,30.21,NE,51,8.0,14.0,52,0.00,,OVC,0.00,118.00,VWS V14.01,2013-02-01 20:45:00,
2013-02-01 15:50:00,72.9,54.3,30.21,ENE,59,10.0,14.0,52,0.00,,OVC,0.00,601.00,VWS V14.01,2013-02-01 20:50:00,
2013-02-01 15:55:00,72.8,54.2,30.21,NE,44,2.0,13.0,52,0.00,,OVC,0.00,214.00,VWS V14.01,2013-02-01 20:55:00,
2013-02-01 16:00:00,72.2,54.1,30.21,NE,45,5.0,7.0,53,0.00,,OVC,0.00,120.00,VWS V14.01,2013-02-01 21:00:00,
2013-02-01 16:05:00,71.7,54.2,30.21,ENE,59,4.0,7.0,54,0.00,,OVC,0.00,97.00,VWS V14.01,2013-02-01 21:05:00,
2013-02-01 16:10:00,71.8,54.3,30.21,NE,46,3.0,11.0,54,0.00,,OVC,0.00,454.00,VWS V14.01,2013-02-01 21:10:00,
2013-02-01 16:15:00,72.4,53.8,30.22,NE,49,6.0,11.0,52,0.00,,OVC,0.00,438.00,VWS V14.01,2013-02-01 21:15:00,
2013-02-01 16:20:00,71.9,53.9,30.22,NE,39,12.0,13.0,53,0.00,,OVC,0.00,98.00,VWS V14.01,2013-02-01 21:20:00,
2013-02-01 16:25:00,71.5,54.0,30.22,NE,46,14.0,15.0,54,0.00,,OVC,0.00,401.00,VWS V14.01,2013-02-01 21:25:00,
2013-02-01 16:30:00,71.7,54.2,30.22,NE,42,6.0,9.0,54,0.00,,OVC,0.00,308.00,VWS V14.01,2013-02-01 21:30:00,
2013-02-01 16:35:00,71.5,54.0,30.22,ENE,58,9.0,14.0,54,0.00,,OVC,0.00,121.00,VWS V14.01,2013-02-01 21:35:00,
2013-02-01 16:40:00,71.5,54.5,30.22,NE,42,15.0,15.0,55,0.00,,OVC,0.00,338.00,VWS V14.01,2013-02-01 21:40:00,
2013-02-01 16:45:00,71.6,54.6,30.22,NE,52,5.0,13.0,55,0.00,,OVC,0.00,301.00,VWS V14.01,2013-02-01 21:45:00,
2013-02-01 16:50:00,71.5,55.0,30.22,NE,56,6.0,11.0,56,0.00,,OVC,0.00,176.00,VWS V14.01,2013-02-01 21:50:00,
2013-02-01 16:55:00,71.3,54.3,30.22,NE,41,10.0,15.0,55,0.00,,OVC,0.00,260.00,VWS V14.01,2013-02-01 21:55:00,
2013-02-01 17:00:00,71.2,54.7,30.22,ENE,63,12.0,13.0,56,0.00,,OVC,0.00,248.00,VWS V14.01,2013-02-01 22:00:00,
2013-02-01 17:05:00,71.1,54.6,30.22,ENE,57,5.0,14.0,56,0.00,,OVC,0.00,223.00,VWS V14.01,2013-02-01 22:05:00,
2013-02-01 17:10:00,70.8,54.3,30.22,NE,39,4.0,10.0,56,0.00,,OVC,0.00,100.00,VWS V14.01,2013-02-01 22:10:00,
2013-02-01 17:15:00,70.5,54.1,30.22,NNE,29,4.0,17.0,56,0.00,,OVC,0.00,63.00,VWS V14.01,2013-02-01 22:15:00,
2013-02-01 17:20:00,70.3,53.9,30.23,NE,44,7.0,12.0,56,0.00,,OVC,0.00,49.00,VWS V14.01,2013-02-01 22:20:00,
2013-02-01 17:25:00,70.0,54.1,30.23,ENE,57,11.0,11.0,57,0.00,,OVC,0.00,37.00,VWS V14.01,2013-02-01 22:25:00,
2013-02-01 17:30:00,69.8,53.9,30.23,NNE,33,8.0,11.0,57,0.00,,OVC,0.00,35.00,VWS V14.01,2013-02-01 22:30:00,
2013-02-01 17:35:00,69.6,53.7,30.23,NE,39,12.0,14.0,57,0.00,,OVC,0.00,32.00,VWS V14.01,2013-02-01 22:35:00,
2013-02-01 17:40:00,69.5,53.6,30.23,NNE,16,4.0,9.0,57,0.00,,OVC,0.00,28.00,VWS V14.01,2013-02-01 22:40:00,
2013-02-01 17:45:00,69.4,53.5,30.23,NE,36,6.0,15.0,57,0.00,,OVC,0.00,23.00,VWS V14.01,2013-02-01 22:45:00,
2013-02-01 17:50:00,69.3,53.0,30.23,NNE,18,5.0,13.0,56,0.00,,OVC,0.00,21.00,VWS V14.01,2013-02-01 22:50:00,
2013-02-01 17:55:00,69.1,52.3,30.23,NE,40,9.0,9.0,55,0.00,,OVC,0.00,12.00,VWS V14.01,2013-02-01 22:55:00,
2013-02-01 18:00:00,69.0,52.7,30.23,NE,51,6.0,11.0,56,0.00,,OVC,0.00,7.00,VWS V14.01,2013-02-01 23:00:00,
2013-02-01 18:05:00,68.8,52.5,30.23,ENE,57,9.0,9.0,56,0.00,,OVC,0.00,5.00,VWS V14.01,2013-02-01 23:05:00,
2013-02-01 18:10:00,68.7,52.9,30.23,NE,42,4.0,10.0,57,0.00,,OVC,0.00,0.00,VWS V14.01,2013-02-01 23:10:00,
2013-02-01 18:15:00,68.5,52.7,30.23,NE,46,3.0,7.0,57,0.00,,OVC,0.00,0.00,VWS V14.01,2013-02-01 23:15:00,
2013-02-01 18:20:00,68.4,52.6,30.23,NNE,33,5.0,7.0,57,0.00,,OVC,0.00,0.00,VWS V14.01,2013-02-01 23:20:00,
2013-02-01 18:25:00,68.3,52.5,30.23,NE,41,3.0,5.0,57,0.00,,OVC,0.00,0.00,VWS V14.01,2013-02-01 23:25:00,
2013-02-01 18:30:00,68.2,52.9,30.23,NE,35,5.0,7.0,58,0.00,,OVC,0.00,0.00,VWS V14.01,2013-02-01 23:30:00,
2013-02-01 18:35:00,68.1,52.8,30.23,NE,38,2.0,5.0,58,0.00,,OVC,0.00,0.00,VWS V14.01,2013-02-01 23:35:00,
2013-02-01 18:40:00,67.9,52.6,30.23,NE,51,2.0,4.0,58,0.00,,OVC,0.00,0.00,VWS V14.01,2013-02-01 23:40:00,
2013-02-01 18:45:00,67.8,52.5,30.23,NE,40,1.0,2.0,58,0.00,,OVC,0.00,0.00,VWS V14.01,2013-02-01 23:45:00,
2013-02-01 18:50:00,67.7,52.9,30.23,NE,51,2.0,6.0,59,0.00,,OVC,0.00,0.00,VWS V14.01,2013-02-01 23:50:00,
2013-02-01 18:55:00,67.7,52.9,30.23,NE,40,1.0,10.0,59,0.00,,OVC,0.00,0.00,VWS V14.01,2013-02-01 23:55:00,
2013-02-01 19:00:00,67.8,53.0,30.24,NE,36,2.0,6.0,59,0.00,,OVC,0.00,0.00,VWS V14.01,2013-02-02 00:00:00,
2013-02-01 19:05:00,67.9,53.1,30.24,NNE,24,2.0,2.0,59,0.00,,OVC,0.00,0.00,VWS V14.01,2013-02-02 00:05:00,
2013-02-01 19:10:00,68.0,54.1,30.23,NE,34,1.0,3.0,61,0.00,,OVC,0.00,0.00,VWS V14.01,2013-02-02 00:10:00,
2013-02-01 19:15:00,67.8,54.3,30.24,NNE,19,2.0,3.0,62,0.00,,OVC,0.00,0.00,VWS V14.01,2013-02-02 00:15:00,
2013-02-01 19:20:00,67.5,54.9,30.24,North,355,1.0,3.0,64,0.00,,OVC,0.00,0.00,VWS V14.01,2013-02-02 00:20:00,
2013-02-01 19:25:00,67.1,55.0,30.24,North,5,2.0,7.0,65,0.00,,OVC,0.00,0.00,VWS V14.01,2013-02-02 00:25:00,
2013-02-01 19:30:00,66.7,55.0,30.24,North,355,0.0,3.0,66,0.00,,OVC,0.00,0.00,VWS V14.01,2013-02-02 00:30:00,
2013-02-01 19:35:00,66.4,54.7,30.25,North,9,1.0,2.0,66,0.00,,OVC,0.00,0.00,VWS V14.01,2013-02-02 00:35:00,
2013-02-01 19:40:00,66.1,54.8,30.25,NNW,344,2.0,2.0,67,0.00,,OVC,0.00,0.00,VWS V14.01,2013-02-02 00:40:00,
2013-02-01 19:45:00,65.9,55.0,30.25,NNW,343,1.0,2.0,68,0.00,,OVC,0.00,0.00,VWS V14.01,2013-02-02 00:45:00,
2013-02-01 19:50:00,65.7,54.9,30.25,NNE,18,1.0,2.0,68,0.00,,OVC,0.00,0.00,VWS V14.01,2013-02-02 00:50:00,
2013-02-01 19:55:00,65.5,54.7,30.24,North,360,2.0,2.0,68,0.00,,OVC,0.00,0.00,VWS V14.01,2013-02-02 00:55:00,
2013-02-01 20:00:00,65.3,54.9,30.24,NNW,339,2.0,4.0,69,0.00,,OVC,0.00,0.00,VWS V14.01,2013-02-02 01:00:00,
2013-02-01 20:05:00,65.1,54.7,30.24,NNW,341,2.0,4.0,69,0.00,,OVC,0.00,0.00,VWS V14.01,2013-02-02 01:05:00,
2013-02-01 20:10:00,65.0,54.6,30.25,North,5,2.0,6.0,69,0.00,,OVC,0.00,0.00,VWS V14.01,2013-02-02 01:10:00,
2013-02-01 20:15:00,64.8,54.4,30.25,North,5,2.0,5.0,69,0.00,,OVC,0.00,0.00,VWS V14.01,2013-02-02 01:15:00,
2013-02-01 20:20:00,64.7,54.3,30.25,North,350,2.0,2.0,69,0.00,,OVC,0.00,0.00,VWS V14.01,2013-02-02 01:20:00,
2013-02-01 20:25:00,64.5,54.5,30.24,North,360,2.0,3.0,70,0.00,,OVC,0.00,0.00,VWS V14.01,2013-02-02 01:25:00,
2013-02-01 20:30:00,64.3,54.3,30.25,NNW,344,2.0,2.0,70,0.00,,OVC,0.00,0.00,VWS V14.01,2013-02-02 01:30:00,
2013-02-01 20:35:00,64.1,54.1,30.25,NNW,343,3.0,6.0,70,0.00,,OVC,0.00,0.00,VWS V14.01,2013-02-02 01:35:00,
2013-02-01 20:40:00,63.9,54.3,30.25,North,355,2.0,4.0,71,0.00,,OVC,0.00,0.00,VWS V14.01,2013-02-02 01:40:00,
2013-02-01 20:45:00,63.7,54.1,30.24,North,9,2.0,3.0,71,0.00,,OVC,0.00,0.00,VWS V14.01,2013-02-02 01:45:00,
2013-02-01 20:50:00,63.7,54.1,30.24,NNW,340,2.0,4.0,71,0.00,,OVC,0.00,0.00,VWS V14.01,2013-02-02 01:50:00,
2013-02-01 20:55:00,63.6,54.0,30.24,NNW,341,2.0,2.0,71,0.00,,OVC,0.00,0.00,VWS V14.01,2013-02-02 01:55:00,
2013-02-01 21:00:00,63.5,54.3,30.25,NNW,348,1.0,4.0,72,0.00,,OVC,0.00,0.00,VWS V14.01,2013-02-02 02:00:00,
2013-02-01 21:05:00,63.4,54.2,30.24,North,5,3.0,3.0,72,0.00,,OVC,0.00,0.00,VWS V14.01,2013-02-02 02:05:00,
2013-02-01 21:10:00,63.3,54.1,30.25,NNW,344,2.0,5.0,72,0.00,,OVC,0.00,0.00,VWS V14.01,2013-02-02 02:10:00,
2013-02-01 21:15:00,63.2,54.0,30.25,NNW,346,1.0,3.0,72,0.00,,OVC,0.00,0.00,VWS V14.01,2013-02-02 02:15:00,
2013-02-01 21:20:00,63.0,53.8,30.24,NNW,343,1.0,4.0,72,0.00,,OVC,0.00,0.00,VWS V14.01,2013-02-02 02:20:00,
2013-02-01 21:25:00,62.8,54.0,30.25,North,355,2.0,3.0,73,0.00,,OVC,0.00,0.00,VWS V14.01,2013-02-02 02:25:00,
2013-02-01 21:30:00,62.7,53.9,30.25,NNW,347,0.0,2.0,73,0.00,,OVC,0.00,0.00,VWS V14.01,2013-02-02 02:30:00,
2013-02-01 21:35:00,62.5,53.7,30.25,North,355,1.0,3.0,73,0.00,,OVC,0.00,0.00,VWS V14.01,2013-02-02 02:35:00,
2013-02-01 21:40:00,62.3,53.9,30.25,North,355,1.0,2.0,74,0.00,,OVC,0.00,0.00,VWS V14.01,2013-02-02 02:40:00,
2013-02-01 21:45:00,62.3,53.9,30.25,NNW,348,2.0,5.0,74,0.00,,OVC,0.00,0.00,VWS V14.01,2013-02-02 02:45:00,
2013-02-01 21:50:00,62.2,53.8,30.25,North,349,2.0,4.0,74,0.00,,OVC,0.00,0.00,VWS V14.01,2013-02-02 02:50:00,
2013-02-01 21:55:00,62.2,53.5,30.25,NNW,345,0.0,3.0,73,0.00,,OVC,0.00,0.00,VWS V14.01,2013-02-02 02:55:00,
2013-02-01 22:00:00,62.1,53.7,30.25,NNW,346,2.0,2.0,74,0.00,,OVC,0.00,0.00,VWS V14.01,2013-02-02 03:00:00,
2013-02-01 22:05:00,62.0,53.6,30.25,NNW,336,1.0,3.0,74,0.00,,OVC,0.00,0.00,VWS V14.01,2013-02-02 03:05:00,
2013-02-01 22:10:00,61.8,53.4,30.25,NNW,340,1.0,3.0,74,0.00,,OVC,0.00,0.00,VWS V14.01,2013-02-02 03:10:00,
2013-02-01 22:15:00,61.5,53.2,30.25,NNW,342,2.0,2.0,74,0.00,,OVC,0.00,0.00,VWS V14.01,2013-02-02 03:15:00,
2013-02-01 22:20:00,61.3,53.0,30.25,NNW,342,0.0,2.0,74,0.00,,OVC,0.00,0.00,VWS V14.01,2013-02-02 03:20:00,
2013-02-01 22:25:00,61.0,53.0,30.25,NNW,345,1.0,3.0,75,0.00,,OVC,0.00,0.00,VWS V14.01,2013-02-02 03:25:00,
2013-02-01 22:30:00,60.8,53.2,30.25,NNW,345,1.0,2.0,76,0.00,,OVC,0.00,0.00,VWS V14.01,2013-02-02 03:30:00,
2013-02-01 22:35:00,60.6,52.6,30.25,NNW,345,2.0,3.0,75,0.00,,OVC,0.00,0.00,VWS V14.01,2013-02-02 03:35:00,
2013-02-01 22:40:00,60.4,52.5,30.25,NNW,345,3.0,3.0,75,0.00,,OVC,0.00,0.00,VWS V14.01,2013-02-02 03:40:00,
2013-02-01 22:45:00,60.2,52.6,30.25,NNW,345,2.0,3.0,76,0.00,,OVC,0.00,0.00,VWS V14.01,2013-02-02 03:45:00,
2013-02-01 22:50:00,60.0,52.4,30.25,NNW,344,1.0,3.0,76,0.00,,OVC,0.00,0.00,VWS V14.01,2013-02-02 03:50:00,
2013-02-01 22:55:00,59.8,52.2,30.25,NNW,344,1.0,2.0,76,0.00,,OVC,0.00,0.00,VWS V14.01,2013-02-02 03:55:00,
2013-02-01 23:00:00,59.6,52.4,30.25,NNW,344,2.0,3.0,77,0.00,,OVC,0.00,0.00,VWS V14.01,2013-02-02 04:00:00,
2013-02-01 23:05:00,59.5,51.9,30.25,NNW,344,1.0,1.0,76,0.00,,OVC,0.00,0.00,VWS V14.01,2013-02-02 04:05:00,
2013-02-01 23:10:00,59.3,52.1,30.25,NNW,344,2.0,3.0,77,0.00,,OVC,0.00,0.00,VWS V14.01,2013-02-02 04:10:00,
2013-02-01 23:15:00,59.3,52.1,30.25,NNW,344,1.0,3.0,77,0.00,,OVC,0.00,0.00,VWS V14.01,2013-02-02 04:15:00,
2013-02-01 23:20:00,59.1,51.9,30.25,NNW,340,1.0,4.0,77,0.00,,OVC,0.00,0.00,VWS V14.01,2013-02-02 04:20:00,
2013-02-01 23:25:00,59.1,51.9,30.25,NNW,340,1.0,3.0,77,0.00,,OVC,0.00,0.00,VWS V14.01,2013-02-02 04:25:00,
2013-02-01 23:30:00,59.1,51.9,30.25,NNW,340,2.0,2.0,77,0.00,,OVC,0.00,0.00,VWS V14.01,2013-02-02 04:30:00,
2013-02-01 23:35:00,59.0,51.8,30.25,NNW,340,0.0,2.0,77,0.00,,OVC,0.00,0.00,VWS V14.01,2013-02-02 04:35:00,
2013-02-01 23:40:00,59.0,51.8,30.25,NNW,340,1.0,2.0,77,0.00,,OVC,0.00,0.00,VWS V14.01,2013-02-02 04:40:00,
2013-02-01 23:45:00,59.1,51.9,30.25,NNW,340,0.0,1.0,77,0.00,,OVC,0.00,0.00,VWS V14.01,2013-02-02 04:45:00,
2013-02-01 23:50:00,59.1,51.9,30.25,NNW,340,0.0,1.0,77,0.00,,OVC,0.00,0.00,VWS V14.01,2013-02-02 04:50:00,
2013-02-01 23:55:00,58.9,51.7,30.25,NNW,340,2.0,2.0,77,0.00,,OVC,0.00,0.00,VWS V14.01,2013-02-02 04:55:00,